Flag for Greece Weather past 2 weeks in Volos, Greece

Now
68 °F

Clear.


Feels Like: 68 °F
Forecast: 69 / 90 °F
Wind: No wind

Location: Skiathos Island

Current Time: Jul 6, 2015 at 6:06:44 AM

Latest Report: Jul 6, 2015 at 4:50 AM


Visibility: 10 mi

Pressure: 30.04 "Hg

Humidity: 83%

Dew point: 63 °F

Location of VolosLocation

Historic Weather in Volos — Graph

°F

Volos temperature yesterday

Maximum temperature yesterday: 79 °F (at 11:50 AM)
Minimum temperature yesterday: 66 °F (at 4:50 AM)
Average temperature yesterday: 74 °F

Past Weeks' High & Low Weather Summary

 TemperatureHumidityPressure
High82 °F (Jul 2, 6:50 PM)100% (Jun 22, 10:50 AM)30.15 "Hg (Jun 22, 10:50 AM)
Low61 °F (Jun 23, 4:50 AM)40% (Jul 2, 6:50 PM)29.80 "Hg (Jun 21, 4:50 AM)
Average73 °F68%29.99 "Hg
* Reported Jun 21 4:50 AM — Jul 6 4:50 AM, Volos, Weather by CustomWeather, © 2015

Note: Actual official high and low records may vary slightly from our data, if they occured in-between our weather recording intervals... More about our weather records

Advertising

Volos weather history for previous 24 hours

 ConditionsComfort  
Time TempWeatherWind HumidityBarometerVisibility
4:50 AM
Mon, Jul 6
68 °FClear.No wind83%30.04 "Hg10 mi
11:50 PM
Sun, Jul 5
70 °FClear.No wind73%30.04 "Hg10 mi
10:50 PM72 °FClear.No wind83%30.04 "Hg10 mi
9:50 PM72 °FSunny.No wind78%30.04 "Hg10 mi
8:50 PM75 °FSunny.5 mph74%30.04 "Hg10 mi
7:50 PM77 °FSunny.No wind69%30.04 "Hg10 mi
6:50 PM79 °FSunny.No wind61%30.04 "Hg10 mi
3:50 PM79 °FPassing clouds.N/A54%30.07 "HgN/A
2:50 PM79 °FPassing clouds.N/A54%30.07 "HgN/A
1:50 PM79 °FPassing clouds.N/A65%30.07 "HgN/A
12:50 PM79 °FPassing clouds.N/A61%30.07 "HgN/A
11:50 AM79 °FPassing clouds.N/A65%30.07 "HgN/A
10:50 AM77 °FPassing clouds.N/A69%30.07 "HgN/A
9:50 AM77 °FSunny.N/A65%30.07 "Hg10 mi
8:50 AM77 °FSunny.N/A65%30.07 "Hg10 mi
7:50 AM72 °FSunny.No wind78%30.07 "Hg10 mi
6:50 AM68 °FPassing clouds.N/A78%30.07 "HgN/A
Weather by CustomWeather, © 2015

See weather overviewHow to use our weather pages